Location: Carrières
(48.9495°N, 2.0407°E)
Time: 21:15:56
(UTC+00:00)

Transit 2A - Pass Details

Date: 24 April 2024
Orbit: 594 x 957 km, 66.7° (Epoch: 18 May)

Event Time Altitude Azimuth Distance (km) Brightness Sun altitude
Rises 09:22:56 0° 306° (NW) 3,037 8.7 43.1°
Reaches altitude 10° 09:27:30 10° 347° (NNW) 2,225 8.2 43.7°
Maximum altitude 09:28:31 11° 358° (N) 2,212 8.2 43.8°
Drops below altitude 10° 09:29:34 10° 10° (N) 2,274 8.3 44.0°
Sets 09:34:32 0° 49° (NE) 3,322 9.4 44.6°
